TimeMST,TemperatureF,Dew PointF,Humidity,Sea Level PressureIn,VisibilityMPH,Wind Direction,Wind SpeedMPH,Gust SpeedMPH,PrecipitationIn,Events,Conditions,WindDirDegrees,DateUTC
12:53 AM,1.9,-0.9,88,30.19,9.0,Calm,Calm,-,N/A,,Partly Cloudy,0,2013-02-04 07:53:00
1:53 AM,1.9,-2.0,83,30.18,10.0,Calm,Calm,-,N/A,,Overcast,0,2013-02-04 08:53:00
4:53 AM,3.0,-0.0,87,30.15,7.0,Calm,Calm,-,N/A,,Mostly Cloudy,0,2013-02-04 11:53:00
5:53 AM,5.0,1.9,87,30.14,9.0,Calm,Calm,-,N/A,,Overcast,0,2013-02-04 12:53:00
6:53 AM,9.0,5.0,84,30.13,9.0,Calm,Calm,-,N/A,,Overcast,0,2013-02-04 13:53:00
7:53 AM,9.0,6.1,88,30.13,7.0,NNE,3.5,-,N/A,,Overcast,30,2013-02-04 14:53:00
8:53 AM,10.0,8.1,92,30.13,7.0,Calm,Calm,-,N/A,,Overcast,0,2013-02-04 15:53:00
9:53 AM,14.0,10.9,88,30.12,9.0,Calm,Calm,-,N/A,,Overcast,0,2013-02-04 16:53:00
10:53 AM,17.1,12.0,81,30.12,10.0,Calm,Calm,-,N/A,,Overcast,0,2013-02-04 17:53:00
11:53 AM,19.9,14.0,78,30.11,10.0,Calm,Calm,-,N/A,,Mostly Cloudy,0,2013-02-04 18:53:00
12:53 PM,25.0,15.1,66,30.08,10.0,Calm,Calm,-,N/A,,Partly Cloudy,0,2013-02-04 19:53:00
1:53 PM,26.1,17.1,69,30.06,10.0,East,4.6,-,N/A,,Clear,90,2013-02-04 20:53:00
2:53 PM,28.9,18.0,64,30.04,10.0,SW,3.5,-,N/A,,Clear,220,2013-02-04 21:53:00
3:53 PM,27.0,19.0,72,30.05,10.0,Calm,Calm,-,N/A,,Clear,0,2013-02-04 22:53:00
4:53 PM,25.0,18.0,75,30.04,10.0,NW,5.8,-,N/A,,Clear,310,2013-02-04 23:53:00
5:53 PM,19.9,15.1,81,30.05,10.0,SW,5.8,-,N/A,,Clear,230,2013-02-05 00:53:00
6:53 PM,19.0,14.0,81,30.06,10.0,West,4.6,-,N/A,,Clear,280,2013-02-05 01:53:00
7:53 PM,15.1,12.0,88,30.06,10.0,Calm,Calm,-,N/A,,Clear,0,2013-02-05 02:53:00
8:53 PM,15.1,10.9,84,30.08,10.0,Variable,4.6,-,N/A,,Scattered Clouds,0,2013-02-05 03:53:00
9:53 PM,17.1,12.9,84,30.08,10.0,Calm,Calm,-,N/A,,Overcast,0,2013-02-05 04:53:00
10:53 PM,17.1,14.0,88,30.08,10.0,Calm,Calm,-,N/A,,Overcast,0,2013-02-05 05:53:00
11:53 PM,12.9,10.0,88,30.09,7.0,SW,3.5,-,N/A,,Partly Cloudy,230,2013-02-05 06:53:00